This demonstration page uses our WeatherBlox Daily Observations layout. Learn more.

Left ArrowRight Arrow

40.92945, -100.16068

Hourly Observations for June 28, 2016

Temp ( °F °C ) Dew Point ( °F °C ) Humidity (%) Winds ( mph kmh ) Pressure ( in mb ) Visibility ( mi km ) Precip ( " mm )
12:15 am 00:15 Clear 69 20.6 59 15.1 71 71 ENE 10 17 30.18 1022 10 16 N/A
12:35 am 00:35 Clear 68 20 59 15.2 74 74 ENE 8 13 30.18 1022 10 16 N/A
12:55 am 00:55 Clear 67 19.2 59 15.1 77 77 NE 7 11 30.18 1022 10 16 N/A
1:15 am 01:15 Clear 66 18.7 59 15.2 80 80 ENE 5 7 30.21 1023 10 16 N/A
1:35 am 01:35 Clear 65 18.2 59 15.1 82 82 E 3 6 30.21 1023 10 16 N/A
1:55 am 01:55 Clear 64 17.7 59 15.2 85 85 E 3 6 30.21 1023 7 11 N/A
2:15 am 02:15 Clear 63 17.4 59 15.2 87 87 N N/A 30.21 1023 10 16 N/A
2:35 am 02:35 Clear 64 17.5 60 15.3 87 87 N N/A 30.21 1023 10 16 N/A
2:55 am 02:55 Clear 63 17.4 59 15 86 86 N N/A 30.21 1023 10 16 N/A
3:15 am 03:15 Clear 63 17.1 60 15.4 90 90 N N/A 30.21 1023 10 16 N/A
3:35 am 03:35 Clear 62 16.6 58 14.7 89 89 N N/A 30.18 1022 10 16 N/A
3:55 am 03:55 Clear 62 16.5 59 14.9 90 90 N N/A 30.18 1022 10 16 N/A
4:15 am 04:15 Clear 62 16.5 59 15 91 91 N N/A 30.18 1022 10 16 N/A
4:35 am 04:35 Clear 61 16 58 14.5 91 91 N N/A 30.18 1022 10 16 N/A
4:55 am 04:55 Clear 61 16 58 14.5 91 91 N N/A 30.18 1022 10 16 N/A
5:15 am 05:15 Clear 61 16.1 58 14.6 91 91 N N/A 30.18 1022 10 16 N/A
5:35 am 05:35 Clear 61 15.9 58 14.3 90 90 ENE 5 7 30.18 1022 10 16 N/A
5:55 am 05:55 Clear 61 15.9 58 14.3 90 90 E 6 9 30.18 1022 10 16 N/A
6:15 am 06:15 Sunny 61 16 58 14.5 91 91 E 6 9 30.18 1022 10 16 N/A
6:35 am 06:35 Sunny 63 17.1 59 14.8 86 86 ESE 5 7 30.18 1022 10 16 N/A
6:55 am 06:55 Sunny 64 17.6 59 15 85 85 ESE 5 7 30.21 1023 10 16 N/A
7:15 am 07:15 Sunny 65 18.3 60 15.4 83 83 N N/A 30.21 1023 10 16 N/A
7:35 am 07:35 Partly Cloudy 67 19.4 60 15.7 79 79 N N/A 30.18 1022 10 16 N/A
7:55 am 07:55 Cloudy 67 19.5 59 14.9 75 75 SE 7 11 30.18 1022 10 16 N/A
8:15 am 08:15 Partly Cloudy with Nearby Thunderstorms 67 19.7 60 15.5 77 77 ESE 6 9 30.18 1022 10 16 N/A
8:35 am 08:35 Sunny 69 20.5 61 15.9 75 75 ESE 7 11 30.18 1022 10 16 N/A
8:55 am 08:55 Sunny 71 21.5 61 16 71 71 SE 6 9 30.18 1022 10 16 N/A
9:15 am 09:15 Sunny 73 22.5 62 16.4 69 69 SE 6 9 30.15 1021 10 16 N/A
9:35 am 09:35 Mostly Cloudy 72 22.1 61 16.1 69 69 SE 9 15 30.18 1022 10 16 N/A
9:55 am 09:55 Cloudy 72 22.4 62 16.5 69 69 SSE 7 11 30.15 1021 10 16 N/A
10:15 am 10:15 Cloudy 72 22.2 62 16.6 71 71 SE 7 11 30.18 1022 10 16 N/A
10:35 am 10:35 Cloudy 73 22.5 63 17.2 72 72 SE 7 11 30.15 1021 10 16 N/A
10:55 am 10:55 Cloudy 74 23.1 63 17.2 70 70 SE 7 11 30.15 1021 10 16 N/A
11:15 am 11:15 Partly Cloudy 75 24 63 17.3 66 66 ESE 8 13 30.15 1021 10 16 N/A
11:35 am 11:35 Sunny 76 24.5 64 17.7 66 66 SE 8 13 30.15 1021 10 16 N/A
11:55 am 11:55 Sunny 77 24.9 63 17.4 63 63 SE 6 9 30.15 1021 10 16 N/A
12:15 pm 12:15 Sunny 78 25.8 64 17.9 62 62 ESE 8 13 30.09 1019 10 16 N/A
12:35 pm 12:35 Sunny 79 26.2 65 18.1 61 61 SE 14 22 30.09 1019 10 16 N/A
12:55 pm 12:55 Sunny 80 26.9 64 17.8 58 58 SE 9 15 30.09 1019 10 16 N/A
1:15 pm 13:15 Sunny 81 27.1 65 18.2 58 58 SSE 10 17 30.09 1019 10 16 N/A
1:35 pm 13:35 Sunny 82 27.5 64 17.9 56 56 SE 7 11 30.12 1020 10 16 N/A
1:55 pm 13:55 Partly Cloudy 82 27.6 65 18.5 58 58 SSE 9 15 30.09 1019 10 16 N/A
2:15 pm 14:15 Partly Cloudy 81 27.4 65 18.6 59 59 SSE 6 9 30.09 1019 10 16 N/A
2:35 pm 14:35 Partly Cloudy 82 28 65 18.6 57 57 SSE 12 19 30.06 1018 10 16 N/A
2:55 pm 14:55 Sunny 83 28.2 65 18.1 54 54 ESE 13 20 30.06 1018 10 16 N/A
3:15 pm 15:15 Sunny 83 28.4 64 17.6 52 52 SSE 13 20 30.06 1018 10 16 N/A
3:35 pm 15:35 Sunny 83 28.5 63 17.3 51 51 S 10 17 30.00 1016 10 16 N/A
3:55 pm 15:55 Sunny 84 28.7 64 18 52 52 S 10 17 30.00 1016 10 16 N/A
4:15 pm 16:15 Sunny 84 29 63 17.4 50 50 S 9 15 30.00 1016 10 16 N/A
4:35 pm 16:35 Sunny 85 29.2 64 17.8 50 50 SSE 13 20 29.97 1015 10 16 N/A
4:55 pm 16:55 Sunny 84 29.1 62 16.9 48 48 SSE 12 19 29.97 1015 10 16 N/A
5:15 pm 17:15 Sunny 85 29.2 62 16.8 47 47 SSE 12 19 29.97 1015 10 16 N/A
5:35 pm 17:35 Sunny 85 29.3 61 16.1 45 45 SE 9 15 29.94 1014 10 16 N/A
5:55 pm 17:55 Sunny 85 29.4 61 16 44 44 SSE 13 20 29.94 1014 10 16 N/A
6:15 pm 18:15 Sunny 84 29.1 62 16.6 47 47 SSE 13 20 29.94 1014 10 16 N/A
6:35 pm 18:35 Sunny 84 29 63 17.1 49 49 SSE 10 17 29.91 1013 10 16 N/A
6:55 pm 18:55 Sunny 84 29 62 16.6 47 47 SE 12 19 29.91 1013 10 16 N/A
7:15 pm 19:15 Sunny 83 28.6 61 16.2 47 47 SE 10 17 29.91 1013 10 16 N/A
7:35 pm 19:35 Sunny 83 28.4 62 16.7 49 49 SE 10 17 29.91 1013 10 16 N/A
7:55 pm 19:55 Sunny 81 27.1 63 17.1 54 54 SE 10 17 29.94 1014 10 16 N/A
8:15 pm 20:15 Sunny 80 26.9 64 17.7 57 57 SE 8 13 29.94 1014 10 16 N/A
8:35 pm 20:35 Sunny 79 26 65 18.5 63 63 SE 6 9 29.94 1014 10 16 N/A
8:55 pm 20:55 Sunny 78 25.3 64 18 64 64 SSE 7 11 29.97 1015 10 16 N/A
9:15 pm 21:15 Clear 77 25.2 64 17.5 62 62 SE 6 9 29.97 1015 10 16 N/A
9:35 pm 21:35 Clear 78 25.6 63 17.2 60 60 SE 8 13 29.97 1015 10 16 N/A
9:55 pm 21:55 Clear 78 25.5 63 17.1 60 60 SE 8 13 29.97 1015 10 16 N/A
10:15 pm 22:15 Clear with Nearby Thunderstorms 77 25.1 63 17.4 62 62 SE 6 9 30.03 1017 10 16 N/A
10:35 pm 22:35 Clear with Nearby Thunderstorms 75 24 64 18 69 69 ESE 3 6 30.06 1018 10 16 N/A
10:55 pm 22:55 Partly Cloudy 74 23.5 65 18.3 73 73 NE 6 9 30.06 1018 10 16 N/A
11:15 pm 23:15 Cloudy with Light Rain 73 22.5 66 19.1 81 81 WNW 8 13 30.09 1019 10 16 N/A
11:35 pm 23:35 Cloudy with Rain 64 18 60 15.7 87 87 NNW 24 39 30.21 1023 7 11 0.03 0.76
11:55 pm 23:55 Cloudy with Nearby Thunderstorms 64 17.5 60 15.4 88 88 N 21 33 30.21 1023 5 8 0.07 1.78

Powered by AerisWeather